Home   Weather   Atlanta   Past weeks
Flag for USA

Past Weather in Atlanta, Georgia, USA — Yesterday and Last 2 Weeks

Now
75 °F

Clear.


Feels Like: 74 °F
Forecast: 93 / 74 °F
Wind: No wind

Location: Fulton County Airport-Brown Field

Current Time: Jul 16, 2019 at 4:19:45 am

Latest Report: Jul 16, 2019 at 2:53 am


Visibility: 10 mi

Pressure: 30.08 "Hg

Humidity: 88%

Dew Point: 71 °F

Location of AtlantaLocation

Past Weather in Atlanta — Graph

°F

Atlanta Temperature Yesterday

Maximum temperature yesterday: 93 °F (at 12:53 pm)
Minimum temperature yesterday: 70 °F (at 5:53 am)
Average temperature yesterday: 83 °F

High & Low Weather Summary for the Past Weeks

 TemperatureHumidityPressure
High95 °F (Jul 4, 4:53 pm)96% (Jul 6, 6:53 am)30.19 "Hg (Jul 6, 6:53 am)
Low70 °F (Jul 15, 5:53 am)36% (Jul 4, 4:53 pm)29.82 "Hg (Jul 8, 5:53 pm)
Average82 °F70%29.99 "Hg
* Reported Jul 1 2:53 am — Jul 16 2:53 am, Atlanta. Weather by CustomWeather, © 2019

Note: Actual official high and low records may vary slightly from our data, if they occured in-between our weather recording intervals... More about our weather records

Advertising

Atlanta Weather History for the Previous 24 Hours

Scroll right to see more
 ConditionsComfort  
Time TempWeatherWind HumidityBarometerVisibility
2:53 am
Tue, Jul 16
75 °FClear.No wind88%30.08 "Hg10 mi
1:53 am75 °FClear.No wind85%30.09 "Hg10 mi
12:53 am79 °FClear.No wind74%30.09 "Hg10 mi
11:53 pm
Mon, Jul 15
81 °FClear.No wind69%30.10 "Hg10 mi
10:53 pm82 °FClear.3 mph65%30.09 "Hg10 mi
9:53 pm85 °FClear.3 mph53%30.09 "Hg10 mi
8:53 pm87 °FClear.7 mph48%30.08 "Hg10 mi
7:53 pm89 °FSunny.6 mph45%30.07 "Hg10 mi
6:53 pm92 °FSunny.8 mph40%30.05 "Hg10 mi
5:53 pm92 °FPassing clouds.8 mph43%30.06 "Hg10 mi
4:53 pm92 °FScattered clouds.7 mph40%30.08 "Hg10 mi
3:53 pm91 °FScattered clouds.6 mph45%30.09 "Hg10 mi
2:53 pm92 °FSunny.6 mph43%30.11 "Hg10 mi
1:53 pm91 °FSunny.8 mph41%30.12 "Hg10 mi
12:53 pm93 °FSunny.9 mph37%30.12 "Hg10 mi
11:53 am91 °FSunny.8 mph41%30.13 "Hg10 mi
10:53 am87 °FSunny.3 mph48%30.14 "Hg10 mi
9:53 am82 °FSunny.No wind63%30.13 "Hg10 mi
8:53 am80 °FSunny.No wind71%30.12 "Hg10 mi
7:53 am73 °FSunny.No wind88%30.11 "Hg10 mi
6:53 am70 °FSunny.No wind90%30.11 "Hg10 mi
5:53 am70 °FClear.No wind93%30.11 "Hg10 mi
4:53 am74 °FClear.No wind82%30.10 "Hg10 mi
Weather by CustomWeather, © 2019

See weather overview

LIVE PARTIAL LUNAR ECLIPSE – Watch the eclipse as it happens